Showing default

YUNHAI 2-2D, 59283

Orbit data source: Space-Track

YUNHAI 2-2D, 59283 is a payload satellite owned by CASC (CN) in LEO that was launched on Thu, 21 Mar 2024 UTC via a CHANG ZHENG 2D/YZ-3 launch vehicle from the Jiuquan Satellite Launch Center, China (JSC). Payload-class satellites include a variety of spacecraft equipped with specific instruments for various scientific and technological missions. These include communications satellites like Starlink; space stations such as the ISS; scientific satellites like the Hubble; Earth observation satellites from companies like Planet Labs, Umbra, and HawkEye 360; GPS; miniature CubeSats for education and research; and military/defense satellites.

Loading next visibility...
Identifier
59283, 2024-052D
Orbit
LEO
Country
Flag of CNCN / PRC
Related business
Manufacturer
DFH Shenzhen
Mission
Operational Defense Meteo Radio Occ.
Bus & Motor
YH-2, Unknown motor
Mass
~100 kg wet, ~100 kg dry
Launch date (UTC)
2024-03-21 (2 years ago)
Launch vehicle
CHANG ZHENG 2D/YZ-3
Launch site
Jiuquan Satellite Launch Center, China (JSC)
Object type
Payload
Rocket body
Debris
Shape & HBR
Box + 2 Pan, 0.5 m
Radar Cross Section
0.166 m², Large (>1 m²)

Expand to show TLE details & history
Last TLE update: 22 hours ago

TLE from 22 hours ago
0 YUNHAI 2-2D
1 59283U 24052D   26172.50985899  .00000018  00000-0  71781-4 0  9998
2 59283  50.0067 244.0394 0004868 237.1673 122.8774 14.27997833119014
Epoch: 2026-06-21T12:14Z
TLE epoch observation values (Epoch: 2026-06-21T12:14:11.816Z)
Latitude
0.00002°
Longitude
150.78108°
Altitude
800.86 km
Speed
7.453 km/s
True Right ascension
16h 16m 09s
True Declination
0° 00' 00"
Sunlit
Object was in full shadow at epoch
Visualization orbit readout
Latitude
Unknown
Longitude
Unknown
Altitude
Unknown
Speed
Unknown
Apparent Right ascension
Unknown
Apparent Declination
Unknown
Sunlit
N/A
Visualization observer readout
Local Sidereal Time
21:28:08
Azimuth
Unknown
Elevation
Unknown
Doppler factor
Unknown
Orbital elements
Apogee altitude
802.663 km
Perigee altitude
795.676 km
Semi-major axis
7,177.306 km
Eccentricity
0.00049
Inclination
50.0067°
RAAN
244.0394°
Arg. of periapsis
237.1673°
True anomaly
122.92423°
Mean anomaly
122.8774°
Eccentric anomaly
122.90082°
Mean motion
3.56945 °/min
Orbital period
100.86 mins
BSTAR
0.000071781
Loading maneuver chart data...
Computing Atmospheric mass density...
Loading historical data...
Loading historical data...
Loading historical data...
Loading historical data...
Loading historical data...
Loading historical data...
Loading historical data...

Documentation

Showing up to 5 results
|